User: anonymous   Login
Location: NJAA Observatory
(40.6819°N, 74.8979°W)
Time: 05:39:57
(UTC-04:00)
Language:

Cosmos 1328 Rocket - Orbit

View from above orbital plane
View from above orbital plane
View from above satellite
View from above satellite

Ground track
Ground track

The orbit data is extracted from the following two-line orbital elements,

1 12988U 81117B   15126.48441146  .00000408  00000-0  45681-4 0  9993
2 12988 082.5251 078.0148 0016808 237.5959 240.0069 14.84401864805176
Epoch (UTC): 06 May 2015 11:37:33
Eccentricity: 0.0016808
inclination: 82.5251°
perigee height: 604 km
apogee height: 627 km
right ascension of ascending node: 78.0148°
argument of perigee: 237.5959°
revolutions per day: 14.84401864
mean anomaly at epoch: 240.0069°
orbit number at epoch: 80517

The dashed part of the orbit path shows where the satellite is in the earth's shadow,  

DLR